Dewpoint
39 40 41 41 42 43 43 44 46 46 48 47 48 49 49 49 49 50 54 55 39 32 38 40 33 31 30 33 41 41 39 40 39 37 39 36 36 31 29 26 31 28 30 29 31 30 19 21 27 23 32 28 28 30
41 41 43 43 42 43 45 46 47 47 48 48 48 48 49 49 49 50 53 53 52 42 47 49 50 49 44 38 38 41 35 39 39 36 41 43 36 35 34 27 29 28 29 29 26 25 27 26 25 27 30 31 31 31
42 41 42 43 42 44 47 47 47 47 47 48 48 48 48 49 49 50 53 53 49 49 47 45 45 49 49 50 51 39 42 40 41 45 45 45 34 40 33 33 32 30 31 28 28 22 23 25 27 29 30 31 32 33
43 43 43 47 47 47 48 47 47 48 48 48 48 48 48 49 49 50 52 54 48 49 45 46 49 48 49 49 48 49 45 45 43 43 46 39 38 38 39 35 32 31 30 28 29 26 25 27 30 33 35 36 37 37
46 46 47 47 47 47 47 47 47 47 48 48 48 48 49 49 49 52 52 52 54 44 45 46 47 47 47 46 45 45 45 42 41 43 35 41 40 39 40 37 34 32 27 32 29 33 35 32 36 40 39 40 40 40
46 46 46 46 46 46 46 46 47 47 47 48 48 48 49 49 49 49 47 50 49 52 48 44 47 46 47 45 44 43 44 42 41 44 44 39 40 39 38 32 35 36 37 37 36 39 39 40 37 36 35 34 34 33
46 47 47 47 47 47 47 48 48 48 48 48 48 48 48 49 49 46 41 50 49 51 47 44 44 46 47 46 47 46 47 46 43 44 44 43 40 40 40 34 38 36 36 38 38 40 39 36 35 35 36 36 36 36
46 47 47 46 47 47 48 49 49 48 48 48 48 48 49 49 48 49 47 47 49 47 46 43 42 45 47 46 45 46 47 46 44 42 42 42 40 42 38 37 36 35 36 37 35 36 35 34 35 36 36 35 33 33
46 46 46 45 45 45 47 48 48 48 48 48 49 50 50 51 47 50 45 48 50 47 42 44 41 40 44 42 44 44 45 42 42 40 41 42 38 37 36 35 35 35 36 36 35 34 35 35 34 34 33 32 31 30
46 46 45 45 45 45 45 45 46 46 46 48 46 44 44 49 46 47 44 47 45 44 42 38 42 40 42 42 39 41 42 39 37 39 41 39 37 33 34 34 35 35 36 36 35 34 34 33 33 32 32 30 29 31
44 44 44 43 43 44 45 45 45 45 47 48 46 46 47 46 46 44 39 39 39 37 39 39 40 39 42 40 37 40 38 38 35 37 36 35 34 32 34 35 36 36 36 36 36 35 33 32 30 29 30 31 28 27
42 42 42 42 42 41 42 45 47 46 47 48 48 47 46 44 41 35 35 38 38 35 37 37 38 39 40 42 38 39 35 35 32 37 35 31 32 33 34 35 35 34 34 33 33 31 31 30 29 27 27 28 30 30
42 41 41 40 41 41 40 41 42 42 45 46 42 37 39 38 31 30 28 32 33 36 36 38 36 39 39 40 38 36 33 34 36 32 30 32 32 34 34 34 32 32 31 30 28 26 25 27 30 31 30 31 32 30
40 40 40 40 39 39 40 40 42 43 42 38 37 32 34 33 31 31 32 33 33 34 38 39 36 38 38 36 36 34 32 35 30 28 30 30 32 34 34 32 31 29 27 25 28 29 30 31 30 31 31 31 30 29
38 39 39 39 39 38 38 39 40 41 38 34 34 29 28 30 31 32 33 33 34 36 37 39 38 38 35 34 35 33 30 29 31 31 31 32 33 34 34 30 26 28 30 30 30 30 31 32 31 29 28 27 27 26
35 36 37 39 38 37 37 38 39 38 36 33 32 30 32 31 31 32 32 32 34 35 37 38 34 34 32 33 32 31 31 29 31 32 32 33 32 34 34 28 28 30 30 30 30 30 31 30 29 28 25 23 25 25
35 35 38 38 37 36 36 36 36 34 33 32 30 32 32 31 30 30 32 32 35 34 31 33 31 29 32 31 30 32 29 31 32 32 33 33 32 33 32 33 33 31 30 30 30 29 28 27 26 22 18 17 18 19
34 36 37 37 37 35 34 34 33 31 29 32 30 30 31 32 32 32 34 35 36 34 33 30 33 30 29 28 29 31 32 33 34 33 32 35 34 35 35 34 30 30 30 28 27 26 25 23 20 17 15 15 15 15
33 35 36 36 36 34 31 31 31 28 30 31 32 33 32 32 34 34 34 36 35 35 34 32 30 29 30 31 30 31 32 33 32 32 32 34 35 35 32 30 29 29 27 26 24 22 21 17 16 15 15 13 15 14
33 32 34 35 34 31 30 29 29 28 27 30 32 30 30 30 33 32 34 34 33 31 29 28 28 28 29 29 31 32 34 34 32 30 29 31 33 33 31 29 27 26 23 19 18 18 17 16 14 13 15 13 15 14
31 30 33 34 32 31 29 28 26 28 26 26 30 29 27 31 31 31 32 33 32 29 28 30 30 30 30 30 30 32 32 34 34 33 31 29 30 29 28 27 26 25 24 22 19 17 17 14 12 12 14 15 14 15
30 32 33 32 30 31 28 30 25 26 24 25 25 26 26 27 28 28 31 29 26 26 28 29 28 30 27 25 26 28 30 31 30 30 29 29 26 25 25 25 24 22 20 18 16 16 14 11 11 12 13 13 13 13
31 31 31 31 26 26 25 27 26 25 23 23 26 23 24 25 27 28 25 26 24 24 27 27 26 26 25 25 24 24 26 25 23 22 21 20 20 20 19 18 20 19 16 10 10 10 11 10 10 11 12 11 12 11
28 28 26 26 25 23 26 23 22 22 23 22 21 21 22 25 26 24 21 20 22 22 22 24 27 26 24 22 20 21 23 22 21 22 22 20 17 17 17 15 13 10 9 9 10 11 11 11 9 10 10 9 9 8
23 23 26 23 25 23 22 22 22 21 19 22 22 21 22 26 22 19 18 18 20 20 21 24 22 22 21 20 19 19 20 21 18 16 18 19 17 16 11 9 9 8 9 10 9 9 9 8 8 8 7 7 7 6
21 24 22 22 23 22 22 20 21 20 21 20 22 23 24 22 18 16 16 18 18 18 18 20 22 20 17 17 16 15 16 19 18 14 11 9 10 11 9 8 8 10 8 9 8 7 7 6 5 5 5 6 6 5
20 21 23 25 24 23 23 24 23 21 20 20 21 21 22 17 16 16 18 18 18 18 18 18 18 17 16 15 15 15 14 12 11 9 8 7 8 8 8 7 6 6 6 6 6 6 5 5 4 4 5 5 5 5
21 23 21 23 23 24 22 21 20 19 21 22 22 19 18 17 16 16 16 18 18 17 16 15 14 14 14 14 16 15 13 12 12 10 10 10 8 8 7 7 6 5 5 5 4 4 4 4 4 5 5 4 3 4
22 25 23 21 22 22 21 20 20 21 22 22 22 18 15 13 14 16 15 17 19 19 16 15 14 15 13 12 11 11 11 10 8 5 4 6 6 8 7 6 5 5 5 5 3 3 3 3 4 4 3 3 3 3
23 25 21 21 20 19 21 25 25 24 22 21 18 14 13 12 13 15 16 16 14 13 13 13 13 12 10 10 9 9 9 7 6 5 4 4 5 5 5 5 5 5 5 4 3 3 3 3 3 3 3 2 2 1
24 24 21 20 19 21 23 24 25 23 21 18 18 16 13 11 12 12 12 12 12 12 12 10 9 9 7 6 6 6 6 7 5 4 4 4 4 5 5 5 5 5 4 3 2 2 1 0 1 1 1 -0 -1 -2
22 20 19 17 19 22 22 21 21 22 20 17 14 14 12 12 9 9 10 12 11 9 7 8 8 7 6 6 6 6 4 5 4 4 4 4 4 5 5 5 5 4 3 2 1 1 1 -0 -0 -1 -1 -2 -3 -5
20 19 17 17 17 18 19 18 16 15 15 13 11 11 11 11 6 8 10 10 9 8 8 8 8 8 7 6 6 5 3 3 3 3 4 3 3 3 3 4 4 3 2 1 1 1 0 -1 -1 -2 -4 -4 -5 -6
Wind_Speed
25 24 23 22 21 22 23 24 25 23 22 36 39 35 34 32 27 24 6 4 7 10 10 5 8 16 19 18 11 12 9 3 4 4 6 4 2 5 3 3 6 7 9 5 4 5 7 6 6 1 5 8 9 10
21 18 18 19 18 20 21 24 23 27 32 32 33 32 30 27 25 30 5 1 8 6 8 5 6 7 2 8 12 17 6 13 10 7 3 3 3 2 3 4 3 5 6 2 7 2 4 4 4 6 6 9 10 10
16 15 16 14 25 25 26 26 32 30 31 30 29 28 28 26 26 27 4 5 7 6 7 7 6 6 5 5 6 8 6 7 7 3 7 4 3 6 7 7 4 5 3 3 2 2 4 5 7 4 5 7 10 12
23 22 20 18 18 19 21 25 24 25 26 26 27 27 25 24 24 30 7 1 6 7 6 4 3 3 5 3 5 3 11 8 12 8 4 5 4 6 5 2 4 2 8 5 7 12 7 5 3 6 10 11 11 11
28 27 23 19 17 16 16 17 19 20 22 24 24 23 23 24 28 12 3 5 6 1 5 8 8 6 3 4 6 7 15 13 9 5 3 4 5 5 2 1 4 5 3 5 6 7 6 8 11 9 8 9 9 9
26 25 24 21 19 18 17 17 18 19 20 21 23 23 24 25 31 9 4 4 5 4 5 7 4 5 7 10 11 11 9 5 4 5 4 4 2 4 6 6 5 4 4 4 4 10 8 7 11 10 10 11 12 13
26 26 24 22 20 17 16 15 19 21 23 24 25 26 27 30 26 6 1 5 5 2 4 7 6 4 3 5 3 6 6 4 2 4 3 4 4 5 5 5 7 2 4 1 6 9 6 11 7 9 11 15 19 19
28 27 28 26 24 23 22 22 25 28 28 29 28 28 28 25 19 5 8 8 10 4 4 6 4 4 3 3 3 4 3 3 7 4 3 4 4 2 5 6 3 5 4 8 5 6 7 8 11 13 14 15 17 18
31 27 24 27 26 28 29 27 31 32 33 34 33 31 15 4 3 4 6 13 9 5 2 3 11 7 3 3 3 3 2 4 1 3 3 5 3 5 4 4 3 5 3 2 6 9 11 13 13 13 14 15 15 11
28 25 23 26 23 25 24 22 20 25 23 16 15 7 6 3 5 6 15 3 1 2 4 5 2 5 2 3 3 3 3 5 3 2 4 4 4 5 4 4 4 4 4 8 9 10 12 13 13 13 12 9 9 11
26 26 30 25 30 27 21 18 14 19 9 4 4 5 6 2 7 3 3 0 2 3 4 4 3 7 3 4 4 2 4 2 5 4 5 6 4 7 5 6 5 6 9 11 15 15 12 13 12 10 10 10 9 9
27 27 28 30 31 32 32 22 9 9 5 7 13 8 5 2 6 5 2 1 3 3 2 3 4 4 3 1 4 3 4 2 4 6 5 4 6 11 9 8 9 12 16 17 17 15 12 11 10 10 8 8 7 6
29 31 31 30 26 25 25 21 22 16 3 3 5 5 3 2 4 2 4 2 3 2 2 3 5 3 4 4 5 3 3 3 5 3 4 3 11 12 12 14 16 15 15 14 13 11 11 11 11 10 10 8 7 8
23 27 32 31 28 25 25 21 14 5 10 8 5 5 6 4 5 4 3 4 2 1 4 7 5 3 2 4 2 4 2 2 4 4 4 9 14 14 13 14 15 14 8 10 11 10 11 11 11 11 10 9 9 9
23 25 24 30 21 18 18 20 23 11 7 7 7 5 6 3 5 3 3 3 6 3 2 5 5 3 3 4 3 5 3 4 5 1 3 12 15 13 13 14 13 11 7 8 9 10 10 10 10 10 9 9 9 9
5 7 18 23 17 18 10 8 10 5 5 5 7 5 2 7 9 7 8 6 8 5 3 4 3 3 2 4 4 4 3 3 3 3 7 14 15 13 12 13 11 8 7 9 10 10 10 9 7 7 6 9 7 8
14 7 21 15 8 12 19 7 6 7 5 5 5 6 6 9 8 4 4 4 6 3 4 3 3 2 2 2 3 3 2 3 6 8 9 12 15 14 11 12 8 8 9 10 10 9 8 6 6 6 6 8 8 6
8 10 17 12 4 7 5 8 5 6 7 7 6 7 6 6 6 6 5 8 4 3 2 3 1 1 3 2 4 3 4 5 8 9 9 13 13 11 11 10 10 10 10 9 8 8 6 4 3 5 6 8 8 8
12 18 21 17 8 6 6 7 6 6 7 4 4 5 5 4 7 6 6 5 5 4 4 1 3 4 4 6 6 4 6 4 7 6 7 9 10 10 8 10 11 10 9 8 6 5 6 7 5 5 6 7 8 9
7 24 26 19 9 5 6 5 4 6 5 4 5 7 4 4 4 6 10 9 7 3 6 6 6 5 6 6 8 8 3 7 9 8 6 7 8 10 11 10 8 9 9 9 7 4 4 3 5 6 7 7 8 9
9 12 13 9 7 11 6 5 7 5 4 5 2 3 5 4 6 7 7 9 8 6 5 6 8 6 7 9 10 8 8 3 3 4 9 10 8 10 10 9 7 6 6 6 4 5 5 5 6 7 7 7 8 8
8 10 5 10 6 6 7 9 4 3 4 4 3 3 4 4 4 7 6 7 6 8 7 7 11 10 9 12 12 13 11 9 11 14 17 13 9 10 10 8 8 9 9 7 6 5 5 6 6 7 7 8 9 9
6 7 6 9 6 7 4 5 4 4 3 2 1 3 3 3 3 4 4 6 5 8 10 8 8 10 10 11 14 16 16 14 12 12 13 13 13 13 11 12 10 8 7 7 6 5 5 5 6 7 8 9 9 10
7 7 7 7 8 5 2 4 3 2 3 3 3 3 3 3 4 4 5 4 7 10 11 12 6 4 8 11 13 14 11 11 13 13 10 10 12 11 10 10 9 8 7 5 5 5 5 7 7 8 8 10 9 10
7 9 6 7 5 4 4 4 4 4 4 3 2 3 3 2 2 3 3 3 8 10 12 10 11 11 9 9 10 12 14 11 11 12 10 8 9 8 8 7 7 8 7 6 6 7 7 7 8 8 10 9 10 11
8 10 5 5 4 4 3 3 3 4 3 2 3 2 1 1 2 3 3 4 6 8 10 11 10 8 10 10 8 9 10 8 7 10 10 10 10 7 5 4 3 4 8 7 7 8 9 8 9 10 10 11 10 12
6 6 5 4 2 3 4 4 3 3 3 3 2 2 1 1 2 3 5 6 5 7 8 9 10 9 8 8 9 9 10 12 11 9 7 8 9 9 8 6 5 6 7 7 7 8 10 10 11 11 11 11 11 10
5 6 4 4 4 4 3 2 2 2 2 3 2 2 2 4 4 4 5 5 6 6 7 9 10 9 9 9 8 6 6 5 5 4 5 5 5 6 6 5 4 4 6 6 7 8 9 10 12 12 12 11 11 10
5 4 2 5 3 4 4 3 2 3 4 4 4 2 3 4 4 4 5 4 3 3 5 5 6 5 6 7 7 8 8 8 6 4 4 4 4 3 7 7 7 8 8 9 8 8 9 11 11 10 10 10 10 9
5 5 2 3 2 2 3 6 5 4 6 5 4 5 5 4 6 6 6 7 7 6 6 5 5 5 5 4 4 5 7 8 9 7 6 6 7 8 8 8 9 9 9 9 10 11 9 9 10 8 8 9 9 9
4 4 2 3 2 3 4 4 2 5 3 4 7 6 6 5 5 8 8 7 6 5 4 5 6 7 6 7 7 6 4 6 6 6 6 7 7 8 8 8 9 9 9 10 11 11 10 11 10 10 9 9 9 9
4 4 4 2 3 3 4 3 2 0 3 2 3 3 4 4 3 3 7 8 5 6 5 5 5 5 5 4 4 3 1 5 7 6 8 9 9 9 9 10 10 9 10 11 11 11 10 11 10 10 10 10 9 9
2 3 3 2 1 2 3 4 2 1 2 3 3 3 4 5 4 3 3 7 7 6 5 5 5 4 4 3 6 5 5 6 7 8 9 9 9 9 10 10 10 9 11 12 12 12 11 11 10 10 10 9 9 9
Wind_Direction
176 180 187 196 199 192 190 188 190 189 178 191 185 181 184 191 190 196 264 265 200 141 124 174 195 187 203 200 164 141 139 153 161 159 178 183 175 194 217 209 183 183 174 191 187 215 261 136 138 279 16 320 330 326
174 183 179 183 193 195 193 199 195 185 170 171 174 177 181 185 187 192 251 67 60 123 95 77 56 31 346 243 201 174 204 157 176 170 146 146 150 133 195 234 189 217 220 237 209 247 112 193 329 320 309 306 314 310
158 167 195 207 223 209 182 162 166 173 174 172 169 173 180 175 191 182 237 152 100 103 119 154 148 79 41 356 352 178 197 145 171 62 147 137 153 163 174 225 205 217 186 222 298 166 273 287 292 290 304 297 308 314
195 196 214 172 157 164 156 153 163 165 163 161 167 173 177 174 183 192 230 62 96 88 115 124 147 106 334 263 209 308 131 100 127 145 119 140 140 215 191 257 209 342 167 233 248 281 286 260 3 17 328 319 313 325
105 111 118 120 124 133 142 146 149 155 162 164 168 171 171 170 176 200 100 49 37 115 131 139 124 37 11 164 168 154 148 141 148 132 123 137 129 134 118 129 222 196 261 215 250 28 342 316 357 2 338 7 3 352
96 102 108 115 121 130 141 151 160 164 162 164 167 167 162 164 171 202 155 46 19 39 115 145 92 76 79 100 112 129 134 132 161 123 122 114 100 186 160 198 106 85 37 0 301 333 312 342 61 39 53 41 48 55
89 90 89 91 100 111 124 137 151 156 156 156 157 155 153 160 172 224 92 126 84 23 120 118 126 116 106 135 72 92 80 100 111 116 85 137 135 179 154 213 138 66 354 355 353 324 154 40 57 64 75 77 71 70
75 76 73 75 84 87 86 102 119 128 128 132 134 139 140 120 119 127 47 59 74 333 234 129 104 137 359 79 97 357 81 102 36 92 100 126 114 168 210 115 88 27 329 75 29 46 76 92 81 70 77 90 86 85
63 65 65 71 70 75 78 89 106 113 114 116 116 119 119 45 115 76 341 76 65 283 244 123 150 154 99 77 61 61 53 92 98 110 138 152 162 194 112 120 76 36 35 74 85 88 87 92 99 97 94 90 94 96
58 57 60 63 63 71 80 96 105 108 106 93 120 99 105 50 283 12 34 328 287 26 25 92 87 118 136 135 91 98 40 136 143 148 142 200 165 109 102 93 85 45 42 135 113 110 107 109 108 110 109 112 81 48
58 51 53 55 56 48 53 59 106 128 126 70 77 67 75 56 63 212 176 238 213 112 42 73 106 122 24 122 125 22 127 128 163 162 203 185 207 170 142 113 66 62 73 82 99 119 125 120 117 114 83 58 52 45
62 58 53 49 49 48 39 41 63 61 44 77 93 82 70 177 200 154 111 106 59 101 55 99 86 89 87 43 106 146 115 143 168 140 179 215 136 138 138 126 120 113 111 111 112 112 98 78 77 77 72 61 51 52
56 52 49 45 45 49 47 45 64 88 90 131 87 68 28 328 101 127 158 79 92 56 83 133 97 85 114 76 88 107 132 144 149 163 218 73 145 146 144 142 124 119 114 111 107 98 93 86 76 80 79 52 32 53
48 50 46 37 33 36 43 43 36 11 41 54 60 76 31 27 53 49 46 74 42 25 99 105 81 87 91 79 108 120 103 153 196 219 215 154 151 141 150 141 137 128 104 110 103 98 100 98 87 76 67 53 50 40
51 44 42 19 20 34 47 39 39 54 47 55 36 58 62 73 46 28 19 62 15 353 6 89 73 74 67 102 70 114 139 219 220 254 120 149 144 146 147 152 128 124 120 118 111 103 102 106 98 83 59 48 44 35
25 41 17 359 15 26 36 49 41 64 61 57 42 72 75 83 57 37 35 50 9 353 349 44 83 106 95 120 155 184 201 206 106 99 130 136 144 144 156 135 145 127 124 113 112 112 103 89 86 84 75 48 34 29
54 40 345 350 3 34 40 70 48 52 58 52 44 17 54 74 68 48 33 15 333 38 56 45 66 59 107 145 124 23 47 59 112 120 133 140 145 154 148 124 122 127 124 121 115 107 104 99 97 67 35 22 7 20
47 11 2 4 0 62 46 43 78 67 63 38 69 29 50 43 67 45 29 16 25 57 39 72 87 62 34 62 85 79 90 92 115 126 127 135 132 131 142 145 136 129 118 116 121 117 109 105 69 36 12 3 346 356
43 24 13 20 40 74 59 40 31 82 58 50 50 33 52 54 48 33 15 24 51 57 126 131 51 40 44 40 29 72 109 124 124 97 94 103 136 152 148 118 122 133 138 136 132 110 99 69 52 24 9 358 347 347
16 20 7 14 30 76 69 37 40 69 64 57 37 37 51 48 4 3 18 17 11 51 51 42 35 20 12 7 357 359 59 114 128 125 115 120 126 124 132 141 140 137 125 113 88 63 101 97 44 19 9 351 345 339
30 352 359 25 52 60 70 32 58 55 83 68 47 41 61 50 36 25 22 356 49 26 64 39 37 53 52 36 16 1 12 353 187 185 163 150 136 125 115 109 110 109 108 88 83 76 50 38 14 358 345 344 340 323
2 349 43 27 68 62 65 22 66 81 72 85 72 40 59 50 43 22 339 51 56 31 13 9 16 10 41 37 35 26 18 48 60 65 77 95 111 106 95 91 103 88 76 63 53 42 27 16 6 344 335 336 318 325
353 26 49 28 72 51 48 1 63 15 85 84 137 80 55 62 16 315 78 65 64 7 3 34 49 52 65 60 56 46 41 58 64 67 75 82 81 79 77 66 56 70 78 52 29 22 12 350 353 334 330 329 326 328
39 48 37 40 42 75 66 46 41 60 62 53 72 79 45 32 336 57 70 64 27 15 20 15 8 86 76 62 55 46 47 68 73 65 71 91 91 81 78 76 69 61 43 22 20 359 351 342 335 333 335 323 328 330
63 17 15 46 32 63 58 52 33 52 64 54 69 79 52 331 60 62 77 71 34 29 15 25 42 42 62 72 66 55 39 51 74 77 53 70 98 103 89 84 73 56 26 13 3 344 340 335 330 333 325 322 326 328
69 26 36 31 41 51 44 64 49 48 55 58 62 58 21 62 80 83 75 31 36 27 22 15 18 53 53 38 47 41 29 32 80 82 56 45 46 52 48 38 15 81 23 1 340 331 327 332 328 325 320 322 325 322
62 49 44 32 47 78 87 68 57 53 57 45 50 34 299 143 105 86 116 33 52 43 35 29 33 50 62 67 63 55 49 48 60 78 80 65 57 47 40 28 13 5 339 346 330 327 324 322 321 320 316 315 320 323
56 32 53 20 65 41 85 69 59 59 60 14 296 38 24 25 77 61 54 59 66 69 65 57 53 53 58 53 47 50 51 71 92 96 110 104 75 66 42 22 28 343 327 343 331 322 323 316 310 309 312 316 314 317
47 14 14 36 44 53 43 39 57 57 7 336 348 79 85 63 34 42 41 27 31 55 67 69 67 75 80 76 59 44 36 22 20 19 8 355 357 39 17 353 345 342 339 328 322 318 318 310 309 310 310 308 310 306
30 351 34 45 47 58 64 13 48 76 44 59 95 114 103 94 50 24 43 46 53 57 55 53 43 48 47 41 60 60 50 38 31 18 355 350 344 339 330 329 332 330 325 323 321 320 312 321 306 295 297 309 313 325
350 336 41 31 58 52 25 353 121 104 92 70 44 70 102 123 106 53 46 37 43 39 57 67 63 44 47 37 23 12 21 53 25 9 355 325 319 315 321 328 319 323 315 315 318 314 318 316 313 311 311 315 316 314
22 34 0 351 70 50 16 21 358 305 116 102 88 101 131 148 95 80 14 349 51 61 47 37 46 48 34 26 12 354 327 323 328 342 330 325 314 316 318 318 313 307 308 313 308 305 304 308 307 309 308 310 319 319
28 17 11 353 344 5 29 338 31 95 65 73 71 50 43 30 78 82 83 36 36 37 34 25 16 2 357 334 337 329 314 324 327 306 303 307 299 300 303 303 306 306 306 305 304 301 301 301 304 308 307 308 311 315